Location: ??????
(56.0120°N, 39.1740°E)
Time: 06:33:18
(UTC+00:00)

Cosmos 2360 - Pass Details

Date: 14 April 2026
Orbit: 846 x 856 km, 70.7° (Epoch: 10 May)

Event Time Altitude Azimuth Distance (km) Brightness Sun altitude
Rises 20:44:51 0° 324° (NW) 3,422 8.4 -23.8°
Reaches altitude 10° 20:47:20 10° 327° (NNW) 2,484 7.5 -23.9°
Maximum altitude 20:53:02 70° 51° (NE) 906 4.3 -24.0°
Enters shadow 20:54:46 45° 119° (ESE) 1,147 4.6 -24.1°
